Language: 


Des rapports , des résumés tant et plus, au choix de chacun....


Données statistiques de la station
Quotidien Rapport Décembre 9, 2017 Unités:  Métrique    Anglais   les deux
« Précédent Jour
Suivant Jour »
Quotidien Hebdomadaire Mensuel Annuel Actuel
  Haut: Bas: Moyen:
Température: 4.2 °C -1.4 °C 1.1 °C
Pt de rosée: 2.0 °C -3.0 °C -0.3 °C
Humidité: 98 % 79 % 92 %
Vitesse du vent: 16.6 km/h 0.0 km/h 8.3 km/h
Rafales: 23.8 km/h - -
Vent:- - WSW
Pression: 1016.1 hPa 1007.0 hPa -
Précipitation: 0.0 mm    
Historical Graphs
 
 
Données statistiques pour Décembre 9, 2017
Heure Température Point de rosée Pression Vent Vitesse du vent Refales Humidité Pluie (taux horaire)
00:01 0.2 °C -1.0 °C 1015.1 hPa WSW 8.7 km/h 12.2 km/h 87 % 0.0 mm
00:06 0.2 °C -1.0 °C 1015.1 hPa West 9.0 km/h 14.0 km/h 88 % 0.0 mm
00:22 0.2 °C -1.0 °C 1015.1 hPa WSW 9.7 km/h 15.4 km/h 89 % 0.0 mm
00:27 0.2 °C -1.0 °C 1015.1 hPa West 9.0 km/h 12.6 km/h 89 % 0.0 mm
00:32 0.1 °C -1.0 °C 1015.1 hPa West 10.1 km/h 12.6 km/h 89 % 0.0 mm
00:37 0.1 °C -1.0 °C 1015.1 hPa West 9.7 km/h 11.9 km/h 89 % 0.0 mm
00:42 0.2 °C -1.0 °C 1014.1 hPa West 7.6 km/h 11.6 km/h 90 % 0.0 mm
00:47 0.4 °C -1.0 °C 1014.1 hPa West 7.9 km/h 12.6 km/h 91 % 0.0 mm
00:52 0.4 °C -1.0 °C 1014.1 hPa West 6.4 km/h 13.7 km/h 91 % 0.0 mm
00:57 0.5 °C 0.0 °C 1014.1 hPa West 8.7 km/h 13.7 km/h 91 % 0.0 mm
01:02 0.5 °C 0.0 °C 1014.1 hPa West 2.6 km/h 14.0 km/h 91 % 0.0 mm
01:07 0.4 °C -1.0 °C 1014.1 hPa West 11.6 km/h 14.0 km/h 91 % 0.0 mm
01:17 0.4 °C -1.0 °C 1015.1 hPa West 13.0 km/h 13.0 km/h 91 % 0.0 mm
01:27 0.4 °C -1.0 °C 1014.1 hPa West 9.7 km/h 13.0 km/h 91 % 0.0 mm
01:32 0.3 °C -1.0 °C 1014.1 hPa West 11.9 km/h 11.9 km/h 91 % 0.0 mm
01:37 0.3 °C -1.0 °C 1014.1 hPa WSW 10.1 km/h 11.9 km/h 91 % 0.0 mm
01:42 0.2 °C -1.0 °C 1015.1 hPa West 10.5 km/h 11.9 km/h 90 % 0.0 mm
01:47 0.1 °C -1.0 °C 1015.1 hPa WSW 1.4 km/h 10.5 km/h 90 % 0.0 mm
01:58 0.0 °C -2.0 °C 1014.1 hPa WSW 5.8 km/h 11.6 km/h 91 % 0.0 mm
02:03 -0.2 °C -2.0 °C 1014.1 hPa WSW 9.3 km/h 11.6 km/h 90 % 0.0 mm
02:08 -0.3 °C -3.0 °C 1014.1 hPa SW 6.9 km/h 10.1 km/h 90 % 0.0 mm
02:13 -0.4 °C -3.0 °C 1015.1 hPa Calm   10.1 km/h 90 % 0.0 mm
02:18 -0.5 °C -3.0 °C 1015.1 hPa West 8.7 km/h 10.1 km/h 91 % 0.0 mm
02:23 -0.5 °C -3.0 °C 1015.1 hPa WSW 9.0 km/h 10.5 km/h 91 % 0.0 mm
02:28 -0.5 °C -3.0 °C 1015.1 hPa Calm   10.5 km/h 92 % 0.0 mm
02:33 -0.5 °C -3.0 °C 1015.1 hPa West 10.1 km/h 11.9 km/h 92 % 0.0 mm
02:38 -0.5 °C -3.0 °C 1015.1 hPa West 6.1 km/h 11.9 km/h 92 % 0.0 mm
02:43 -0.5 °C -2.0 °C 1015.1 hPa West 4.7 km/h 11.6 km/h 93 % 0.0 mm
02:48 -0.5 °C -2.0 °C 1015.1 hPa West 8.7 km/h 11.6 km/h 93 % 0.0 mm
02:53 -0.5 °C -2.0 °C 1015.1 hPa WSW 5.5 km/h 11.6 km/h 93 % 0.0 mm
02:59 -0.6 °C -2.0 °C 1015.1 hPa West 5.8 km/h 11.6 km/h 93 % 0.0 mm
03:04 -0.6 °C -2.0 °C 1015.1 hPa SW 5.8 km/h 8.5 km/h 94 % 0.0 mm
03:09 -0.7 °C -2.0 °C 1015.1 hPa WSW 9.0 km/h 11.1 km/h 94 % 0.0 mm
03:14 -0.7 °C -2.0 °C 1015.1 hPa WSW 8.7 km/h 11.1 km/h 94 % 0.0 mm
03:19 -0.7 °C -2.0 °C 1015.1 hPa WSW 6.9 km/h 10.1 km/h 94 % 0.0 mm
03:24 -0.7 °C -2.0 °C 1015.1 hPa West 6.4 km/h 10.1 km/h 94 % 0.0 mm
03:34 -0.7 °C -2.0 °C 1015.1 hPa West 6.1 km/h 9.0 km/h 95 % 0.0 mm
03:44 -0.6 °C -2.0 °C 1015.1 hPa Calm   10.1 km/h 95 % 0.0 mm
03:49 -0.8 °C -2.0 °C 1015.1 hPa Calm   10.1 km/h 95 % 0.0 mm
03:59 -0.9 °C -2.0 °C 1015.1 hPa WSW 6.4 km/h 9.7 km/h 95 % 0.0 mm
04:02 -0.9 °C -2.0 °C 1015.1 hPa West 7.9 km/h 9.7 km/h 95 % 0.0 mm
04:07 -0.9 °C -2.0 °C 1015.1 hPa West 10.5 km/h 10.5 km/h 95 % 0.0 mm
04:13 -0.8 °C -2.0 °C 1014.1 hPa West 5.5 km/h 14.0 km/h 95 % 0.0 mm
04:18 -0.7 °C -2.0 °C 1014.1 hPa West 9.3 km/h 14.0 km/h 96 % 0.0 mm
04:23 -0.6 °C -2.0 °C 1014.1 hPa WSW 8.7 km/h 12.2 km/h 96 % 0.0 mm
04:24 -0.6 °C -2.0 °C 1014.1 hPa West 12.6 km/h 12.6 km/h 96 % 0.0 mm
04:27 -0.6 °C -2.0 °C 1015.1 hPa West 9.3 km/h 12.6 km/h 96 % 0.0 mm
04:32 -0.5 °C -2.0 °C 1015.1 hPa West 10.5 km/h 13.0 km/h 97 % 0.0 mm
04:37 -0.5 °C -2.0 °C 1015.1 hPa West 12.2 km/h 13.0 km/h 97 % 0.0 mm
04:42 -0.5 °C -2.0 °C 1015.1 hPa WSW 12.6 km/h 12.6 km/h 97 % 0.0 mm
04:47 -0.5 °C -2.0 °C 1015.1 hPa West 13.7 km/h 14.0 km/h 97 % 0.0 mm
04:57 -0.5 °C -2.0 °C 1015.1 hPa WSW 9.7 km/h 13.0 km/h 97 % 0.0 mm
05:03 -0.6 °C -2.0 °C 1015.1 hPa West 12.2 km/h 13.7 km/h 96 % 0.0 mm
05:08 -0.6 °C -2.0 °C 1015.1 hPa WSW 9.0 km/h 14.0 km/h 96 % 0.0 mm
05:13 -0.6 °C -2.0 °C 1015.1 hPa WSW 9.3 km/h 15.1 km/h 96 % 0.0 mm
05:18 -0.6 °C -2.0 °C 1015.1 hPa West 8.7 km/h 15.1 km/h 96 % 0.0 mm
05:23 -0.6 °C -2.0 °C 1015.1 hPa WSW 9.3 km/h 12.2 km/h 96 % 0.0 mm
05:28 -0.6 °C -2.0 °C 1015.1 hPa West 6.9 km/h 13.7 km/h 96 % 0.0 mm
05:33 -0.6 °C -2.0 °C 1015.1 hPa WSW 11.6 km/h 13.7 km/h 96 % 0.0 mm
05:38 -0.6 °C -2.0 °C 1015.1 hPa WSW 4.7 km/h 13.0 km/h 97 % 0.0 mm
05:43 -0.6 °C -2.0 °C 1015.1 hPa WSW 9.0 km/h 13.0 km/h 97 % 0.0 mm
05:49 -0.6 °C -2.0 °C 1015.1 hPa West 8.7 km/h 14.0 km/h 97 % 0.0 mm
05:54 -0.6 °C -2.0 °C 1015.1 hPa West 10.1 km/h 14.0 km/h 97 % 0.0 mm
05:59 -0.6 °C -2.0 °C 1015.1 hPa West 6.4 km/h 13.0 km/h 97 % 0.0 mm
06:04 -0.6 °C -2.0 °C 1015.1 hPa West 8.7 km/h 13.0 km/h 97 % 0.0 mm
06:09 -0.6 °C -2.0 °C 1015.1 hPa SW 9.3 km/h 11.9 km/h 97 % 0.0 mm
06:14 -0.7 °C -2.0 °C 1015.1 hPa West 8.7 km/h 12.2 km/h 96 % 0.0 mm
06:19 -0.8 °C -2.0 °C 1015.1 hPa WNW 9.0 km/h 12.6 km/h 96 % 0.0 mm
06:24 -0.8 °C -2.0 °C 1015.1 hPa West 9.7 km/h 12.6 km/h 96 % 0.0 mm
06:29 -0.8 °C -2.0 °C 1015.1 hPa West 5.0 km/h 10.5 km/h 96 % 0.0 mm
06:34 -0.8 °C -2.0 °C 1015.1 hPa SW 9.7 km/h 15.4 km/h 96 % 0.0 mm
06:39 -0.8 °C -2.0 °C 1015.1 hPa West 10.5 km/h 15.4 km/h 96 % 0.0 mm
06:42 -0.8 °C -2.0 °C 1014.1 hPa West 6.9 km/h 15.4 km/h 96 % 0.0 mm
06:47 -0.8 °C -2.0 °C 1014.1 hPa West 7.9 km/h 11.9 km/h 97 % 0.0 mm
06:57 -0.9 °C -2.0 °C 1015.1 hPa Calm   9.0 km/h 96 % 0.0 mm
07:02 -1.1 °C -2.0 °C 1015.1 hPa WSW 5.5 km/h 7.9 km/h 96 % 0.0 mm
07:07 -1.2 °C -2.0 °C 1015.1 hPa WSW 5.0 km/h 10.1 km/h 96 % 0.0 mm
07:12 -1.1 °C -2.0 °C 1015.1 hPa West 6.9 km/h 12.2 km/h 96 % 0.0 mm
07:17 -1.0 °C -2.0 °C 1015.1 hPa West 6.9 km/h 12.2 km/h 97 % 0.0 mm
07:27 -1.1 °C -2.0 °C 1015.1 hPa West 7.9 km/h 11.9 km/h 97 % 0.0 mm
07:32 -1.1 °C -2.0 °C 1015.1 hPa WSW 9.3 km/h 11.9 km/h 97 % 0.0 mm
07:42 -1.3 °C -2.0 °C 1015.1 hPa WSW 7.9 km/h 10.1 km/h 97 % 0.0 mm
07:52 -1.3 °C -2.0 °C 1015.1 hPa West 9.3 km/h 10.5 km/h 97 % 0.0 mm
07:57 -1.3 °C -2.0 °C 1015.1 hPa WSW 6.9 km/h 10.5 km/h 97 % 0.0 mm
08:02 -1.3 °C -2.0 °C 1015.1 hPa West 10.1 km/h 10.5 km/h 97 % 0.0 mm
08:07 -1.3 °C -2.0 °C 1015.1 hPa WSW 9.3 km/h 10.5 km/h 97 % 0.0 mm
08:12 -1.3 °C -2.0 °C 1014.1 hPa WSW 9.7 km/h 11.9 km/h 97 % 0.0 mm
08:17 -1.3 °C -2.0 °C 1014.1 hPa West 9.3 km/h 13.7 km/h 97 % 0.0 mm
08:22 -1.4 °C -2.0 °C 1014.1 hPa WSW 9.7 km/h 13.7 km/h 98 % 0.0 mm
08:28 -1.3 °C -2.0 °C 1015.1 hPa West 7.9 km/h 11.1 km/h 98 % 0.0 mm
08:33 -1.3 °C -2.0 °C 1015.1 hPa West 4.0 km/h 11.1 km/h 98 % 0.0 mm
08:38 -1.3 °C -2.0 °C 1015.1 hPa West 5.8 km/h 12.2 km/h 98 % 0.0 mm
08:48 -1.2 °C -2.0 °C 1015.1 hPa WSW 10.1 km/h 13.0 km/h 98 % 0.0 mm
08:53 -1.2 °C -2.0 °C 1015.1 hPa West 12.6 km/h 15.4 km/h 98 % 0.0 mm
08:55 -1.2 °C -2.0 °C 1015.1 hPa WSW 8.7 km/h 17.7 km/h 98 % 0.0 mm
09:01 -1.2 °C -2.0 °C 1015.1 hPa West 12.2 km/h 17.7 km/h 98 % 0.0 mm
09:06 -1.2 °C -2.0 °C 1015.1 hPa West 10.5 km/h 16.9 km/h 98 % 0.0 mm
09:16 -0.4 °C -1.0 °C 1015.1 hPa WSW 13.7 km/h 13.7 km/h 98 % 0.0 mm
09:21 -0.4 °C -1.0 °C 1015.1 hPa West 6.4 km/h 15.8 km/h 98 % 0.0 mm
09:26 -0.4 °C -1.0 °C 1015.1 hPa West 10.5 km/h 15.8 km/h 98 % 0.0 mm
09:31 -0.4 °C -1.0 °C 1015.1 hPa West 14.8 km/h 14.8 km/h 98 % 0.0 mm
09:32 -0.4 °C -1.0 °C 1015.1 hPa West 10.8 km/h 14.8 km/h 98 % 0.0 mm
09:38 -0.4 °C -1.0 °C 1015.1 hPa West 7.9 km/h 14.8 km/h 98 % 0.0 mm
09:48 -0.4 °C -1.0 °C 1016.1 hPa WSW 10.8 km/h 16.6 km/h 98 % 0.0 mm
09:58 -0.4 °C -1.0 °C 1016.1 hPa West 12.6 km/h 14.0 km/h 98 % 0.0 mm
10:03 -0.4 °C -1.0 °C 1016.1 hPa WSW 10.1 km/h 15.8 km/h 98 % 0.0 mm
10:08 -0.4 °C -1.0 °C 1016.1 hPa WSW 12.2 km/h 15.8 km/h 98 % 0.0 mm
10:13 -0.4 °C -1.0 °C 1016.1 hPa West 10.5 km/h 12.6 km/h 98 % 0.0 mm
10:18 -0.4 °C -1.0 °C 1016.1 hPa WSW 9.0 km/h 13.7 km/h 98 % 0.0 mm
10:23 -0.4 °C -1.0 °C 1016.1 hPa WSW 6.9 km/h 13.7 km/h 98 % 0.0 mm
10:28 -0.4 °C -1.0 °C 1016.1 hPa WSW 6.4 km/h 12.2 km/h 98 % 0.0 mm
10:33 -0.4 °C -1.0 °C 1016.1 hPa WSW 11.1 km/h 12.2 km/h 98 % 0.0 mm
10:38 1.5 °C 1.0 °C 1016.1 hPa WSW 8.7 km/h 11.1 km/h 97 % 0.0 mm
10:43 1.6 °C 1.0 °C 1015.1 hPa West 9.0 km/h 12.2 km/h 97 % 0.0 mm
10:48 1.7 °C 1.0 °C 1015.1 hPa WSW 14.8 km/h 16.6 km/h 96 % 0.0 mm
10:53 1.8 °C 1.0 °C 1015.1 hPa WSW 9.3 km/h 16.6 km/h 95 % 0.0 mm
10:58 1.9 °C 1.0 °C 1016.1 hPa West 14.0 km/h 15.8 km/h 94 % 0.0 mm
11:03 2.0 °C 1.0 °C 1016.1 hPa WSW 11.9 km/h 16.6 km/h 93 % 0.0 mm
11:08 2.2 °C 1.0 °C 1016.1 hPa WSW 13.7 km/h 16.6 km/h 93 % 0.0 mm
11:13 2.3 °C 1.0 °C 1016.1 hPa WSW 12.6 km/h 14.0 km/h 92 % 0.0 mm
11:19 2.4 °C 1.0 °C 1016.1 hPa SSW 10.1 km/h 14.0 km/h 92 % 0.0 mm
11:24 2.6 °C 2.0 °C 1016.1 hPa WSW 16.6 km/h 16.9 km/h 91 % 0.0 mm
11:29 2.7 °C 1.0 °C 1016.1 hPa WSW 13.0 km/h 16.9 km/h 90 % 0.0 mm
11:34 2.8 °C 2.0 °C 1016.1 hPa WSW 11.6 km/h 16.9 km/h 90 % 0.0 mm
11:39 2.9 °C 2.0 °C 1016.1 hPa WSW 14.0 km/h 15.8 km/h 90 % 0.0 mm
11:44 3.0 °C 2.0 °C 1016.1 hPa West 14.0 km/h 18.0 km/h 89 % 0.0 mm
11:49 3.1 °C 1.0 °C 1016.1 hPa West 12.6 km/h 19.1 km/h 88 % 0.0 mm
11:54 3.1 °C 1.0 °C 1016.1 hPa WSW 11.9 km/h 20.9 km/h 87 % 0.0 mm
12:04 3.3 °C 2.0 °C 1015.1 hPa WSW 10.5 km/h 16.9 km/h 87 % 0.0 mm
12:09 3.5 °C 2.0 °C 1015.1 hPa WSW 13.0 km/h 16.9 km/h 87 % 0.0 mm
12:14 3.6 °C 2.0 °C 1015.1 hPa WSW 14.0 km/h 17.7 km/h 86 % 0.0 mm
12:19 3.7 °C 2.0 °C 1015.1 hPa WSW 9.7 km/h 17.7 km/h 86 % 0.0 mm
12:24 3.8 °C 2.0 °C 1015.1 hPa WSW 16.6 km/h 19.8 km/h 86 % 0.0 mm
12:29 3.9 °C 2.0 °C 1015.1 hPa WSW 14.0 km/h 19.8 km/h 85 % 0.0 mm
12:34 3.9 °C 1.0 °C 1015.1 hPa West 12.6 km/h 20.1 km/h 83 % 0.0 mm
12:39 4.0 °C 1.0 °C 1015.1 hPa West 10.5 km/h 20.1 km/h 82 % 0.0 mm
12:44 4.1 °C 1.0 °C 1015.1 hPa WSW 10.5 km/h 19.5 km/h 83 % 0.0 mm
12:49 4.2 °C 2.0 °C 1015.1 hPa WNW 10.5 km/h 16.9 km/h 82 % 0.0 mm
12:54 4.2 °C 1.0 °C 1015.1 hPa West 13.0 km/h 20.1 km/h 81 % 0.0 mm
13:00 4.0 °C 1.0 °C 1015.1 hPa West 12.6 km/h 20.9 km/h 79 % 0.0 mm
13:05 3.8 °C 1.0 °C 1015.1 hPa SSW 8.7 km/h 20.9 km/h 79 % 0.0 mm
13:10 3.7 °C 1.0 °C 1015.1 hPa WSW 13.0 km/h 19.5 km/h 80 % 0.0 mm
13:15 3.6 °C 1.0 °C 1015.1 hPa West 9.7 km/h 20.1 km/h 80 % 0.0 mm
13:20 3.6 °C 1.0 °C 1015.1 hPa WSW 13.7 km/h 20.9 km/h 80 % 0.0 mm
13:25 3.6 °C 1.0 °C 1015.1 hPa West 9.7 km/h 20.9 km/h 80 % 0.0 mm
13:30 3.6 °C 1.0 °C 1016.1 hPa West 10.1 km/h 19.1 km/h 81 % 0.0 mm
13:35 3.6 °C 1.0 °C 1016.1 hPa West 13.7 km/h 20.1 km/h 80 % 0.0 mm
13:40 3.5 °C 1.0 °C 1016.1 hPa SW 16.3 km/h 23.8 km/h 79 % 0.0 mm
13:45 3.5 °C 1.0 °C 1015.1 hPa West 9.7 km/h 23.8 km/h 79 % 0.0 mm
13:50 3.5 °C 1.0 °C 1015.1 hPa West 13.7 km/h 20.6 km/h 80 % 0.0 mm
13:51 3.5 °C 1.0 °C 1015.1 hPa West 12.6 km/h 20.6 km/h 80 % 0.0 mm
13:56 3.4 °C 0.0 °C 1015.1 hPa West 9.0 km/h 17.7 km/h 79 % 0.0 mm
14:01 3.4 °C 1.0 °C 1015.1 hPa WSW 12.6 km/h 17.7 km/h 80 % 0.0 mm
14:06 3.5 °C 1.0 °C 1015.1 hPa West 9.7 km/h 15.8 km/h 80 % 0.0 mm
14:11 3.5 °C 1.0 °C 1015.1 hPa West 14.0 km/h 15.4 km/h 81 % 0.0 mm
14:16 3.5 °C 1.0 °C 1015.1 hPa WSW 9.3 km/h 16.3 km/h 80 % 0.0 mm
14:21 3.6 °C 1.0 °C 1015.1 hPa West 10.5 km/h 16.3 km/h 79 % 0.0 mm
14:31 3.6 °C 1.0 °C 1014.1 hPa WSW 9.3 km/h 14.8 km/h 79 % 0.0 mm
14:36 3.6 °C 1.0 °C 1014.1 hPa WSW 11.9 km/h 14.0 km/h 79 % 0.0 mm
14:51 3.6 °C 1.0 °C 1014.1 hPa West 6.4 km/h 13.0 km/h 81 % 0.0 mm
15:01 3.5 °C 1.0 °C 1014.1 hPa WSW 6.9 km/h 10.1 km/h 82 % 0.0 mm
15:06 3.4 °C 1.0 °C 1014.1 hPa WSW 6.4 km/h 10.1 km/h 82 % 0.0 mm
15:11 3.3 °C 1.0 °C 1014.1 hPa SW 7.6 km/h 10.1 km/h 82 % 0.0 mm
15:16 3.3 °C 1.0 °C 1014.1 hPa WSW 7.9 km/h 10.1 km/h 82 % 0.0 mm
15:21 3.3 °C 1.0 °C 1014.1 hPa West 9.3 km/h 10.5 km/h 82 % 0.0 mm
15:26 3.3 °C 1.0 °C 1013.1 hPa WSW 7.6 km/h 13.0 km/h 82 % 0.0 mm
15:31 3.5 °C 1.0 °C 1013.1 hPa WSW 6.4 km/h 13.0 km/h 82 % 0.0 mm
15:41 3.7 °C 1.0 °C 1013.1 hPa Calm   11.6 km/h 82 % 0.0 mm
15:46 3.6 °C 1.0 °C 1013.1 hPa WSW 7.2 km/h 12.2 km/h 82 % 0.0 mm
15:51 3.6 °C 1.0 °C 1013.1 hPa SW 6.1 km/h 12.2 km/h 81 % 0.0 mm
16:02 3.4 °C 1.0 °C 1013.1 hPa SSW 6.1 km/h 9.3 km/h 81 % 0.0 mm
16:07 3.4 °C 1.0 °C 1013.1 hPa SW 7.9 km/h 9.0 km/h 81 % 0.0 mm
16:12 3.3 °C 1.0 °C 1013.1 hPa SSW 4.7 km/h 9.0 km/h 80 % 0.0 mm
16:17 3.3 °C 1.0 °C 1013.1 hPa Calm   9.3 km/h 80 % 0.0 mm
16:22 3.1 °C 0.0 °C 1013.1 hPa Calm   9.3 km/h 80 % 0.0 mm
16:27 3.0 °C 0.0 °C 1013.1 hPa SSW 6.9 km/h 9.3 km/h 80 % 0.0 mm
16:32 2.9 °C 0.0 °C 1013.1 hPa SW 6.1 km/h 9.0 km/h 81 % 0.0 mm
16:37 2.8 °C 0.0 °C 1013.1 hPa Calm   7.6 km/h 81 % 0.0 mm
16:42 2.7 °C 0.0 °C 1013.1 hPa SW 5.0 km/h 7.9 km/h 81 % 0.0 mm
16:47 2.6 °C 0.0 °C 1013.1 hPa SSW 5.0 km/h 7.9 km/h 81 % 0.0 mm
16:52 2.5 °C 0.0 °C 1013.1 hPa Calm   8.7 km/h 82 % 0.0 mm
16:57 2.5 °C 0.0 °C 1013.1 hPa SW 7.9 km/h 9.7 km/h 82 % 0.0 mm
17:02 2.5 °C 0.0 °C 1013.1 hPa SW 8.7 km/h 9.7 km/h 82 % 0.0 mm
17:17 2.0 °C -1.0 °C 1013.1 hPa WSW 8.7 km/h 10.1 km/h 81 % 0.0 mm
17:22 1.8 °C -1.0 °C 1013.1 hPa WSW 9.0 km/h 10.1 km/h 82 % 0.0 mm
17:27 1.6 °C -1.0 °C 1012.1 hPa WSW 7.9 km/h 9.7 km/h 82 % 0.0 mm
17:38 1.4 °C -1.0 °C 1012.1 hPa WSW 7.9 km/h 9.3 km/h 83 % 0.0 mm
17:39 1.4 °C -1.0 °C 1012.1 hPa WSW 5.0 km/h 9.3 km/h 83 % 0.0 mm
17:44 1.3 °C -1.0 °C 1012.1 hPa WSW 8.7 km/h 9.0 km/h 84 % 0.0 mm
17:49 1.5 °C 0.0 °C 1012.1 hPa SW 7.9 km/h 10.1 km/h 85 % 0.0 mm
17:54 1.6 °C 0.0 °C 1012.1 hPa SSW 6.1 km/h 10.1 km/h 85 % 0.0 mm
17:59 1.7 °C 0.0 °C 1012.1 hPa SSW 10.1 km/h 10.1 km/h 85 % 0.0 mm
18:04 1.8 °C 0.0 °C 1012.1 hPa SW 8.7 km/h 14.0 km/h 85 % 0.0 mm
18:09 1.9 °C 0.0 °C 1012.1 hPa SSW 10.5 km/h 14.0 km/h 85 % 0.0 mm
18:14 1.9 °C 0.0 °C 1012.1 hPa SSW 6.4 km/h 13.0 km/h 86 % 0.0 mm
18:20 1.8 °C 0.0 °C 1012.1 hPa WSW 7.9 km/h 12.2 km/h 86 % 0.0 mm
18:25 1.8 °C 0.0 °C 1012.1 hPa SW 7.9 km/h 11.9 km/h 86 % 0.0 mm
18:30 1.8 °C 0.0 °C 1012.1 hPa WSW 11.9 km/h 14.0 km/h 87 % 0.0 mm
18:35 1.7 °C 0.0 °C 1012.1 hPa WSW 9.3 km/h 14.0 km/h 88 % 0.0 mm
18:45 1.7 °C 0.0 °C 1011.1 hPa SSW 9.7 km/h 14.3 km/h 89 % 0.0 mm
18:50 1.7 °C 0.0 °C 1011.1 hPa SW 10.1 km/h 15.8 km/h 89 % 0.0 mm
18:55 1.6 °C 0.0 °C 1011.1 hPa SSW 13.7 km/h 16.6 km/h 90 % 0.0 mm
19:00 1.6 °C 1.0 °C 1011.1 hPa SSW 9.3 km/h 16.6 km/h 91 % 0.0 mm
19:05 1.6 °C 1.0 °C 1011.1 hPa SSW 9.3 km/h 14.0 km/h 91 % 0.0 mm
19:10 1.5 °C 1.0 °C 1011.1 hPa WSW 6.4 km/h 14.0 km/h 91 % 0.0 mm
19:15 1.4 °C 0.0 °C 1011.1 hPa SW 6.4 km/h 10.5 km/h 92 % 0.0 mm
19:20 1.4 °C 0.0 °C 1011.1 hPa SSW 6.4 km/h 10.5 km/h 92 % 0.0 mm
19:25 1.3 °C 0.0 °C 1011.1 hPa South 10.5 km/h 10.8 km/h 92 % 0.0 mm
19:30 1.3 °C 0.0 °C 1011.1 hPa WSW 6.1 km/h 10.8 km/h 92 % 0.0 mm
19:35 1.3 °C 1.0 °C 1011.1 hPa SW 9.0 km/h 12.6 km/h 93 % 0.0 mm
19:40 1.3 °C 1.0 °C 1011.1 hPa SW 6.9 km/h 12.6 km/h 94 % 0.0 mm
19:45 1.2 °C 1.0 °C 1011.1 hPa WSW 11.9 km/h 11.9 km/h 94 % 0.0 mm
19:50 1.2 °C 1.0 °C 1011.1 hPa SSW 9.3 km/h 11.9 km/h 94 % 0.0 mm
19:55 1.2 °C 1.0 °C 1011.1 hPa Calm   11.9 km/h 94 % 0.0 mm
20:00 1.2 °C 1.0 °C 1011.1 hPa SW 8.7 km/h 10.5 km/h 95 % 0.0 mm
20:06 1.2 °C 1.0 °C 1011.1 hPa SSW 7.9 km/h 14.0 km/h 95 % 0.0 mm
20:16 1.3 °C 1.0 °C 1011.1 hPa WSW 6.9 km/h 11.6 km/h 96 % 0.0 mm
20:21 1.3 °C 1.0 °C 1011.1 hPa South 10.5 km/h 12.6 km/h 96 % 0.0 mm
20:31 1.4 °C 1.0 °C 1011.1 hPa South 8.7 km/h 10.5 km/h 97 % 0.0 mm
20:36 1.4 °C 1.0 °C 1011.1 hPa SW 6.9 km/h 10.8 km/h 97 % 0.0 mm
20:41 1.5 °C 1.0 °C 1011.1 hPa SW 9.7 km/h 10.8 km/h 97 % 0.0 mm
20:46 1.6 °C 1.0 °C 1011.1 hPa SW 13.7 km/h 13.7 km/h 97 % 0.0 mm
20:51 1.6 °C 1.0 °C 1011.1 hPa SW 6.4 km/h 13.7 km/h 97 % 0.0 mm
20:56 1.6 °C 2.0 °C 1010.0 hPa WSW 13.0 km/h 14.0 km/h 98 % 0.0 mm
21:01 1.6 °C 2.0 °C 1010.0 hPa WSW 7.9 km/h 14.0 km/h 98 % 0.0 mm
21:06 1.7 °C 2.0 °C 1010.0 hPa SW 9.3 km/h 14.0 km/h 98 % 0.0 mm
21:11 1.6 °C 2.0 °C 1010.0 hPa Calm   12.6 km/h 98 % 0.0 mm
21:16 1.6 °C 2.0 °C 1010.0 hPa SW 7.9 km/h 12.6 km/h 98 % 0.0 mm
21:21 1.7 °C 2.0 °C 1010.0 hPa WSW 10.5 km/h 13.0 km/h 98 % 0.0 mm
21:26 1.7 °C 2.0 °C 1009.0 hPa SW 10.8 km/h 13.0 km/h 98 % 0.0 mm
21:37 1.6 °C 2.0 °C 1009.0 hPa SSW 7.9 km/h 11.6 km/h 98 % 0.0 mm
21:42 1.6 °C 2.0 °C 1009.0 hPa SSW 11.6 km/h 11.6 km/h 98 % 0.0 mm
21:57 1.6 °C 2.0 °C 1009.0 hPa SW 5.8 km/h 9.7 km/h 98 % 0.0 mm
22:02 1.6 °C 2.0 °C 1009.0 hPa SW 10.8 km/h 10.8 km/h 98 % 0.0 mm
22:07 1.6 °C 2.0 °C 1009.0 hPa SSW 5.8 km/h 11.9 km/h 98 % 0.0 mm
22:12 1.6 °C 2.0 °C 1009.0 hPa SW 8.7 km/h 11.9 km/h 98 % 0.0 mm
22:17 1.6 °C 2.0 °C 1009.0 hPa SW 5.0 km/h 10.1 km/h 98 % 0.0 mm
22:22 1.5 °C 2.0 °C 1009.0 hPa SSW 6.9 km/h 9.3 km/h 98 % 0.0 mm
22:27 1.5 °C 2.0 °C 1009.0 hPa Calm   9.3 km/h 98 % 0.0 mm
22:32 1.4 °C 1.0 °C 1009.0 hPa Calm   7.9 km/h 98 % 0.0 mm
22:37 1.4 °C 1.0 °C 1009.0 hPa West 5.8 km/h 5.8 km/h 98 % 0.0 mm
22:42 1.4 °C 1.0 °C 1009.0 hPa Calm   5.8 km/h 98 % 0.0 mm
22:47 1.4 °C 1.0 °C 1009.0 hPa SSW 4.7 km/h 6.9 km/h 98 % 0.0 mm
22:52 1.4 °C 1.0 °C 1009.0 hPa Calm   6.9 km/h 98 % 0.0 mm
22:57 1.4 °C 1.0 °C 1008.0 hPa South 2.6 km/h 6.9 km/h 98 % 0.0 mm
23:02 1.4 °C 1.0 °C 1008.0 hPa Calm   5.0 km/h 98 % 0.0 mm
23:08 1.4 °C 1.0 °C 1008.0 hPa Calm   5.5 km/h 98 % 0.0 mm
23:18 1.4 °C 1.0 °C 1007.0 hPa SSW 5.0 km/h 8.7 km/h 98 % 0.0 mm
23:23 1.4 °C 1.0 °C 1007.0 hPa SW 4.3 km/h 8.7 km/h 98 % 0.0 mm
23:28 1.4 °C 1.0 °C 1007.0 hPa Calm   7.9 km/h 98 % 0.0 mm
23:33 1.4 °C 1.0 °C 1007.0 hPa SSW 4.3 km/h 6.4 km/h 98 % 0.0 mm
23:38 1.4 °C 1.0 °C 1007.0 hPa Calm   6.4 km/h 98 % 0.0 mm
23:43 1.4 °C 1.0 °C 1007.0 hPa Calm   9.3 km/h 98 % 0.0 mm
23:48 1.4 °C 1.0 °C 1007.0 hPa SW 1.8 km/h 12.2 km/h 98 % 0.0 mm
23:53 1.4 °C 1.0 °C 1007.0 hPa SW 9.0 km/h 12.2 km/h 98 % 0.0 mm
23:58 1.4 °C 1.0 °C 1007.0 hPa SSW 6.1 km/h 11.6 km/h 98 % 0.0 mm
Le Gheer Warneton
Courtoisie de Weather Underground - 2 mb

Mise a jour : 18/12/2017 23:16:12
Généré par Cumulus 1.9.4 (1099)